Regional Weather Roundup
Issued by NWS

Home | Current Version | Previous Version | Graphics & Text | Print | Product List | Glossary On
Versions: 1 2 3 4 5 6 7 8 9 10 11 12 13 14 15 16 17 18 19 20 21 22 23 24 25 26 27
000
ASUS45 KBOU 271507
RWRCO

WEATHER ROUNDUP FOR COLORADO
NATIONAL WEATHER SERVICE DENVER/BOULDER CO
900 AM MDT THU APR 27 2017

NOTE: "FAIR" INDICATES FEW OR NO CLOUDS BELOW 12000 FEET WITH NO
SIGNIFICANT WEATHER AND/OR OBSTRUCTIONS TO VISIBILITY.

COZ001>005-013-030-031-271600-
...NORTHWEST COLORADO...

CITY           SKY/WX    TMP DP  RH WIND       PRES   REMARKS
CRAIG          FLURRIES  35  31  85 NW10      29.66R WCI  27
HAYDEN         CLOUDY    32  27  80 NW21G29   29.65R VSB 1/2 WCI  20
MEEKER         LGT SNOW  34  33  96 CALM      29.66S VSB 3/4
MOUNT WERNER   NOT AVBL
STEAMBOAT SPGS CLOUDY    32  32 100 CALM      29.62S VSB 3/4
WALDEN           N/A     34  28  80 CALM      29.60F
$$

COZ006>008-011-271600-
...WEST CENTRAL VALLEYS...

CITY           SKY/WX    TMP DP  RH WIND       PRES   REMARKS
GRAND JUNCTION PTSUNNY   46  43  89 CALM      29.68S
MONTROSE       FAIR      46  38  73 CALM      29.70F
EAGLE          LGT RAIN  37  34  87 NW6       29.65F
RIFLE          PTSUNNY   44  40  85 W6        29.66R
DELTA          FAIR      46  40  81 CALM      29.70S
NUCLA          PTSUNNY   50  32  50 W13       29.74F
$$

COZ017>023-064>068-271600-
...SOUTHWEST COLORADO...

CITY           SKY/WX    TMP DP  RH WIND       PRES   REMARKS
DURANGO        LGT RAIN  41  36  82 N5        29.73R
CORTEZ         LGT RAIN  41  38  89 NW8       29.76R FOG
PAGOSA SPRINGS FOG       34  34 100 SE5       29.74F VSB 1/2 WCI  30
TELLURIDE      CLOUDY    34  31  90 W9        29.78S WCI  27
WOLF CREEK PAS SNOW      21  21 100 SW12      29.82R VSB<1/4 WCI   9
$$

COZ009-010-012-014-032>034-037-058>063-271600-
...CENTRAL COLORADO...

CITY           SKY/WX    TMP DP  RH WIND       PRES   REMARKS
ASPEN          SNOW      32  32 100 N7        29.65S VSB 1/2 WCI  26
BUENA VISTA    CLOUDY    35  32  90 CALM      29.64S
COPPER MTN     LGT SNOW  27  21  80 W8        29.68S VSB 3/4 WCI  18
BERTHOUD PASS  CLOUDY    19   9  63 NW23G36   29.65F WCI   2
COTTONWOOD PAS SNOW      32  32 100 SW3       29.65S VSB 1/4
GUNNISON       FAIR      37  33  85 CALM      29.68S
KREMMLING      HVY SNOW  37  36  93 CALM      29.64R VSB 1/4
LEADVILLE      SNOW      26  23  88 NW12G20   29.65S VSB 1/4 WCI  16
MONARCH PASS   CLOUDY    23  21  93 SW40G55   29.78F WCI   3
SALIDA         PTSUNNY   39  36  87 NW3       29.70F
SUNLIGHT       CLOUDY    25  23  93 MISG      29.71S FOG
WILKERSON PASS LGT SNOW  25  23  93 W6        29.69F VSB 3/4 WCI  18
$$

COZ069>075-271600-
...SAN LUIS VALLEY/SANGRE DE CRISTO MOUNTAINS...

CITY           SKY/WX    TMP DP  RH WIND       PRES   REMARKS
ALAMOSA        FAIR      44  31  60 SW8       29.66S
LA VETA PASS   CLOUDY    32  28  86 SW14G26   29.78F WCI  22
SAGUACHE       PTSUNNY   36  34  93 NW5       29.67F
$$

COZ035-036-038>040-271600-
...NORTHERN COLORADO FRONT RANGE...

CITY           SKY/WX    TMP DP  RH WIND       PRES   REMARKS
DENVER INTL AP PTSUNNY   44  35  70 W10       29.56S
DMNS CITY PARK   N/A     44  35  70 N5G13     29.56F
AURORA         PTSUNNY   44  36  74 W6        29.57S
FRONT RANGE AP CLOUDY    46  37  71 W13G18    29.56F
ERIE MUNI ARPT FAIR      43  37  78 CALM      29.56F
BOULDER MUN AP FAIR      43  36  75 NE5       29.56F
CENTENNIAL     CLOUDY    43  36  76 NW6       29.57S
BROOMFIELD     PTSUNNY   43  37  81 N3        29.57F
FORT COLLINS   FAIR      45  37  73 NE10      29.57F
LONGMONT       FAIR      47  37  69 CALM      29.57F HAZE
$$

COZ041-046-047-076>085-087-088-271600-
...PIKES PEAK/PALMER DIVIDE AND SOUTHERN FOOTHILLS...

CITY           SKY/WX    TMP DP  RH WIND       PRES   REMARKS
COLO. SPRINGS  PTSUNNY   46  33  60 CALM      29.58F
A. F. ACADEMY  PTSUNNY   43  32  67 S3        29.57F
SCHRIEVER AFB  FAIR      44  37  73 NE5       29.58S
ELLICOTT       FAIR     N/A N/A N/A CALM      29.56F
FALCON         FAIR      44  33  63 S6        29.59F
FORT CARSON    PTSUNNY   43  34  71 CALM      29.57F
LIMON          CLOUDY    44  38  79 CALM      29.56F
MONUMENT HILL  FAIR      43  30  61 SW6       29.59F
TRINIDAD       FAIR      52  34  50 W15       29.56F
$$

COZ042>045-048>051-090-091-271600-
...NORTHEAST COLORADO...

CITY           SKY/WX    TMP DP  RH WIND       PRES   REMARKS
GREELEY ARPT   PTSUNNY   45  38  76 N7        29.58S
AKRON          FAIR      45  38  76 SE5       29.55F
BURLINGTON     NOT AVBL
WRAY           NOT AVBL
STERLING       CLOUDY    48  41  76 CALM      29.56S
HOLYOKE        FAIR      46  36  66 E6        29.60S
FORT MORGAN    CLOUDY    47  39  75 N5        29.57S
$$

COZ086-089-092>099-271600-
...SOUTHEAST COLORADO...

CITY           SKY/WX    TMP DP  RH WIND       PRES   REMARKS
PUEBLO         FAIR      48  39  71 CALM      29.55F
LA JUNTA       FAIR      51  40  65 VRB3      29.53F
LAMAR          CLOUDY    53  38  56 CALM      29.52F
SPRINGFIELD      N/A     49  38  65 SW12      29.54F
$$




USA.gov is the U.S. government's official web portal to all federal, state and local government web resources and services.